Location: Wapato
(46.4478°N, 120.4212°W)
Time: 10:11:29
(UTC+00:00)

Injun/Solrad 3 - Pass Details

Date: 18 May 2026
Orbit: 867 x 989 km, 66.8° (Epoch: 10 June)

Event Time Altitude Azimuth Distance (km) Brightness Sun altitude
Rises 02:22:39 0° 290° (WNW) 3,596 13.3 10.0°
Reaches altitude 10° 02:26:47 10° 317° (NW) 2,683 11.6 9.3°
Maximum altitude 02:29:41 13° 345° (NNW) 2,464 10.7 8.8°
Drops below altitude 10° 02:32:38 10° 13° (NNE) 2,720 10.5 8.3°
Sets 02:36:54 0° 39° (NE) 3,689 10.8 7.6°
